Back to catalog

STARLINK-34564

AliveCommunicationsSSO
NORAD 64852·PAYLOAD·🇺🇸 United States

Launched Jul 19, 2025 from Vandenberg Space Force Base

Loading…

Next Passes (next 24 hours)

TLE

FreshSource: CelesTrak SupGP

Epoch: Sep 14, 2026, 20:33 UTC

1 64852C 25152L   26257.85673611  .00018604  00000+0  57738-3 0  2577
2 64852  97.2841 108.5538 0001788  95.7616 244.4510 15.33435702    10

Track STARLINK-34564 in real time with AllMySat

Download on the App Store